Location: Overspoor
(51.4747°N, 5.6641°E)
Time: 18:50:58
(UTC+01:00)

Envisat - Visible Passes

Search period start: 21 January 2019 00:00
Search period end: 31 January 2019 00:00
Orbit: 764 x 766 km, 98.2° (Epoch: 20 January)

Date Brightness Start Highest point End Pass type
(mag) Time Alt. Az. Time Alt. Az. Time Alt. Az.
21 Jan 5.8 07:09:03 10° NE 07:12:48 20° E 07:16:31 10° SE visible
21 Jan 3.3 18:28:27 10° SE 18:33:14 44° ENE 18:38:05 10° N visible
21 Jan 4.7 20:07:56 10° SSW 20:12:25 31° W 20:16:57 10° NNW visible
22 Jan 4.0 17:52:44 10° ESE 17:56:48 25° ENE 18:00:52 10° N visible
22 Jan 3.5 19:30:27 10° S 19:35:28 61° W 19:40:32 10° NNW visible
23 Jan 5.1 07:34:04 10° NNE 07:38:37 32° E 07:43:08 10° SSE visible
23 Jan 2.9 18:53:39 10° SSE 18:58:42 70° ENE 19:03:46 10° N visible
23 Jan 5.5 20:34:34 10° SW 20:38:15 20° W 20:41:56 10° NW visible
24 Jan 6.0 06:58:14 10° NE 07:01:27 17° E 07:04:39 10° SE visible
24 Jan 3.5 18:17:29 10° SE 18:22:07 37° ENE 18:26:46 10° N visible
24 Jan 4.4 19:56:26 10° SSW 20:01:08 38° W 20:05:53 10° NNW visible
25 Jan 3.2 19:19:09 10° S 19:24:14 75° WSW 19:29:21 10° NNW visible
25 Jan 6.1 21:02:12 10° WSW 21:04:10 12° W 21:06:09 10° WNW visible
26 Jan 5.4 07:23:02 10° NE 07:27:18 26° E 07:31:33 10° SSE visible
26 Jan 3.0 18:42:33 10° SSE 18:47:32 58° ENE 18:52:31 10° N visible
26 Jan 5.2 20:22:50 10° SW 20:26:55 24° W 20:31:01 10° NW visible
27 Jan 6.1 06:47:36 10° NE 06:50:05 14° E 06:52:34 10° ESE visible
27 Jan 3.7 18:06:34 10° ESE 18:10:59 31° ENE 18:15:26 10° N visible
27 Jan 4.0 19:45:00 10° S 19:49:51 46° W 19:54:47 10° NNW visible
28 Jan 3.0 19:07:56 10° SSE 19:13:01 90° WSW 19:18:09 10° NNW visible
28 Jan 5.9 20:49:55 10° WSW 20:52:47 15° W 20:55:40 10° NW visible
29 Jan 5.8 07:12:04 10° NE 07:15:59 22° E 07:19:52 10° SE visible
29 Jan 3.2 18:31:30 10° SE 18:36:21 48° ENE 18:41:15 10° N visible
29 Jan 4.9 20:11:13 10° SSW 20:15:36 29° W 20:20:01 10° NNW visible
30 Jan 6.4 06:37:28 10° ENE 06:38:42 11° E 06:39:56 10° E visible
30 Jan 3.9 17:55:42 10° ESE 17:59:53 26° ENE 18:04:05 10° N visible
30 Jan 3.6 19:33:37 10° S 19:38:37 56° W 19:43:38 10° NNW visible
